FW3047 Weather Reports


time (UTC)temp
C
wind
direction
speed
KPH
gust
KPH
rain 1hr
cm
rain 24hr
cm
rain mn
cm
humidity
%
barometer
mb
20260906171524 33 136 4.8 12.9 0.00 0.00 0.00 47 1015.1
20260906170029 32 179 3.2 9.7 0.00 0.00 0.00 47 1015.4
20260906164518 32 163 4.8 9.7 0.00 0.00 0.00 48 1015.4
20260906163014 31 182 1.6 8.0 0.00 0.00 0.00 50 1015.5
20260906161512 31 145 3.2 9.7 0.00 0.00 0.00 51 1015.5
20260906160016 31 226 4.8 14.5 0.00 0.00 0.00 52 1015.5
20260906154507 30 186 4.8 11.3 0.00 0.00 0.00 52 1015.4
20260906153004 30 140 3.2 11.3 0.00 0.00 0.00 53 1015.1
20260906151503 30 136 3.2 9.7 0.00 0.00 0.00 54 1015.1
20260906144604 28 360 3.2 9.7 0.00 0.00 0.00 56 1015.3
20260906143055 28 360 8.0 16.1 0.00 0.00 0.00 55 1015.3
20260906141552 27 360 8.0 16.1 0.00 0.00 0.00 56 1015.5
20260906140048 27 360 4.8 12.9 0.00 0.00 0.00 58 1015.5
20260906134549 26 360 4.8 11.3 0.00 0.00 0.00 59 1015.5
20260906133047 26 98 3.2 14.5 0.00 0.00 0.00 59 1015.3
20260906131545 26 92 3.2 12.9 0.00 0.00 0.00 59 1015.3
20260906130049 25 360 0.0 8.0 0.00 0.00 0.00 61 1015.0
20260906124541 24 360 4.8 12.9 0.00 0.00 0.00 63 1014.8
20260906123042 23 360 1.6 4.8 0.00 0.00 0.00 64 1014.7
20260906121543 23 360 0.0 3.2 0.00 0.00 0.00 64 1014.6
20260906120035 23 360 0.0 4.8 0.00 0.00 0.00 64 1014.5
20260906114540 24 360 1.6 4.8 0.00 0.00 0.00 62 1014.4
20260906113042 25 360 0.0 3.2 0.00 0.00 0.00 60 1014.1
20260906111527 25 360 0.0 4.8 0.00 0.00 0.00 58 1014.1
20260906110026 25 360 1.6 6.4 0.00 0.00 0.00 57 1013.9
20260906104529 25 360 0.0 1.6 0.00 0.00 0.00 59 1014.0
20260906103025 25 360 0.0 0.0 0.00 0.00 0.00 60 1013.8
20260906101525 25 360 0.0 3.2 0.00 0.00 0.00 60 1014.0
20260906100023 25 360 0.0 4.8 0.00 0.00 0.00 60 1013.9
20260906094523 25 360 0.0 4.8 0.00 0.00 0.00 61 1013.8
20260906093022 25 360 0.0 4.8 0.00 0.00 0.00 60 1013.7
20260906091531 25 360 0.0 3.2 0.00 0.00 0.00 60 1013.5
20260906090023 25 360 0.0 4.8 0.00 0.00 0.00 60 1013.5
20260906084520 25 360 0.0 1.6 0.00 0.00 0.00 61 1013.4
20260906083020 25 360 0.0 0.0 0.00 0.00 0.00 62 1013.3
20260906081530 25 360 0.0 3.2 0.00 0.00 0.00 62 1013.2
20260906080016 25 360 0.0 6.4 0.00 0.00 0.00 60 1013.1
20260906074520 26 360 0.0 0.0 0.00 0.00 0.00 60 1013.2
20260906073014 25 360 0.0 0.0 0.00 0.00 0.00 59 1013.2
20260906071513 25 360 0.0 1.6 0.00 0.00 0.00 60 1013.1
20260906070012 25 360 0.0 0.0 0.00 0.00 0.00 61 1013.4
20260906064509 25 360 0.0 1.6 0.00 0.00 0.00 60 1013.4
20260906063007 26 360 1.6 4.8 0.00 0.00 0.00 59 1013.7
20260906061505 26 360 3.2 6.4 0.00 0.00 0.00 58 1013.6
20260906060012 26 360 0.0 0.0 0.00 0.00 0.00 58 1013.6
20260906054503 26 360 0.0 0.0 0.00 0.00 0.00 61 1013.7
20260906053002 26 360 0.0 4.8 0.00 0.00 0.00 60 1013.8
20260906051605 26 360 0.0 6.4 0.00 0.00 0.00 60 1013.9
20260906050056 27 360 0.0 4.8 0.00 0.00 0.00 59 1013.6
20260906044555 27 360 0.0 0.0 0.00 0.00 0.00 57 1013.4
20260906043055 27 360 0.0 0.0 0.00 0.00 0.00 57 1013.4
20260906041555 27 360 0.0 0.0 0.00 0.00 0.00 56 1013.4
20260906040054 27 360 0.0 0.0 0.00 0.00 0.00 55 1013.3
20260906034553 27 360 0.0 0.0 0.00 0.00 0.00 56 1013.2
20260906033054 28 360 0.0 0.0 0.00 0.00 0.00 53 1013.1
20260906031601 29 360 0.0 0.0 0.00 0.00 0.00 49 1013.0
20260906030053 29 360 0.0 0.0 0.00 0.00 0.00 49 1013.0
20260906024551 30 360 0.0 0.0 0.00 0.00 0.00 48 1012.8
20260906023052 30 360 0.0 0.0 0.00 0.00 0.00 46 1012.6
20260906021552 31 360 0.0 0.0 0.00 0.00 0.00 45 1012.4
20260906020058 30 360 0.0 0.0 0.00 0.00 0.00 45 1012.2
20260906014550 30 360 0.0 0.0 0.00 0.00 0.00 46 1012.0
20260906013050 31 360 0.0 4.8 0.00 0.00 0.00 47 1011.9
20260906011550 31 121 0.0 0.0 0.00 0.00 0.00 46 1011.9
20260906010049 32 121 0.0 0.0 0.00 0.00 0.00 44 1011.8
20260906004550 32 121 0.0 0.0 0.00 0.00 0.00 44 1011.8
20260906003048 32 122 0.0 4.8 0.00 0.00 0.00 43 1011.8
20260906001548 33 122 0.0 4.8 0.00 0.00 0.00 42 1011.9
20260906000048 33 123 1.6 4.8 0.00 0.00 0.00 40 1011.7
20260905234547 35 126 0.0 3.2 0.00 0.00 0.00 39 1011.6
20260905233049 35 128 0.0 3.2 0.00 0.00 0.00 35 1011.5
20260905231546 35 128 1.6 6.4 0.00 0.00 0.00 34 1011.4
20260905230051 36 124 1.6 4.8 0.00 0.00 0.00 32 1011.4
20260905224600 36 123 0.0 14.5 0.00 0.00 0.00 32 1011.3
20260905223044 37 96 3.2 6.4 0.00 0.00 0.00 30 1011.3
20260905221556 37 181 1.6 4.8 0.00 0.00 0.00 29 1011.3
20260905220042 36 196 1.6 8.0 0.00 0.00 0.00 30 1011.5
20260905214538 37 173 1.6 6.4 0.00 0.00 0.00 30 1011.8
20260905213036 36 105 4.8 8.0 0.00 0.00 0.00 29 1012.1
20260905211534 37 85 1.6 9.7 0.00 0.00 0.00 30 1012.3
20260905210032 37 161 0.0 4.8 0.00 0.00 0.00 31 1012.7
20260905204532 36 170 0.0 4.8 0.00 0.00 0.00 32 1012.9
20260905203033 36 173 0.0 6.4 0.00 0.00 0.00 31 1012.9
20260905201528 36 179 4.8 9.7 0.00 0.00 0.00 32 1013.1
20260905200027 36 205 3.2 8.0 0.00 0.00 0.00 34 1013.2
20260905194526 36 200 3.2 9.7 0.00 0.00 0.00 32 1013.4
20260905193028 36 224 0.0 8.0 0.00 0.00 0.00 32 1013.5
20260905191524 36 242 0.0 6.4 0.00 0.00 0.00 33 1013.7
20260905190024 36 238 0.0 8.0 0.00 0.00 0.00 33 1013.7
20260905184525 36 307 3.2 9.7 0.00 0.00 0.00 35 1013.8
20260905183018 36 281 1.6 11.3 0.00 0.00 0.00 35 1014.0
20260905181515 36 263 0.0 9.7 0.00 0.00 0.00 36 1014.1
20260905180012 35 189 3.2 6.4 0.00 0.00 0.00 37 1014.3
20260905174509 35 246 1.6 6.4 0.00 0.00 0.00 40 1014.5
20260905173007 34 209 3.2 11.3 0.00 0.00 0.00 41 1014.7